PA3DZX-13 Weather Reports


time (UTC)temp
C
wind
direction
speed
KPH
gust
KPH
rain 1hr
cm
rain 24hr
cm
rain mn
cm
humidity
%
barometer
mb
20260508014058 1 67 3.2 6.4 0.00 0.00 0.00 99 1018.5
20260508012557 1 73 6.4 9.7 0.00 0.00 0.00 99 1018.5
20260508011057 1 69 6.4 6.4 0.00 0.00 0.00 98 1018.6
20260508005557 1 44 3.2 6.4 0.00 0.00 0.00 99 1018.6
20260508004057 2 51 3.2 3.2 0.00 0.00 0.00 99 1018.7
20260508002557 2 52 0.0 3.2 0.00 0.00 0.00 99 1018.5
20260508001057 1 52 0.0 3.2 0.00 0.00 0.00 98 1018.6
20260507235557 2 42 3.2 3.2 0.00 0.00 0.00 99 1018.6
20260507234057 1 36 0.0 3.2 0.00 0.00 0.00 99 1018.6
20260507232557 1 29 3.2 3.2 0.00 0.00 0.00 98 1018.6
20260507231057 2 35 3.2 3.2 0.00 0.00 0.00 99 1018.6
20260507225557 2 50 3.2 3.2 0.00 0.00 0.00 98 1018.6
20260507224057 3 35 3.2 3.2 0.00 0.00 0.00 99 1018.6
20260507222557 5 108 0.0 3.2 0.00 0.00 0.00 99 1018.4
20260507221056 3 105 0.0 3.2 0.00 0.00 0.00 95 1018.4
20260507215555 5 94 3.2 6.4 0.00 0.00 0.00 96 1018.3
20260507214055 5 88 3.2 6.4 0.00 0.00 0.00 92 1018.3
20260507212555 5 88 3.2 6.4 0.00 0.00 0.00 91 1018.2
20260507211056 6 87 3.2 6.4 0.00 0.00 0.00 88 1018.2
20260507205555 7 84 6.4 9.7 0.00 0.00 0.00 87 1018.0
20260507204055 7 81 6.4 9.7 0.00 0.00 0.00 86 1018.0
20260507202555 7 83 6.4 6.4 0.00 0.00 0.00 85 1017.8
20260507201054 7 85 3.2 6.4 0.00 0.00 0.00 84 1017.8
20260507195554 8 83 6.4 9.7 0.00 0.00 0.00 81 1017.7
20260507194053 8 83 6.4 12.9 0.00 0.00 0.00 79 1017.6
20260507192553 8 80 6.4 12.9 0.00 0.00 0.00 78 1017.4
20260507191053 10 82 6.4 9.7 0.00 0.00 0.00 77 1017.4
20260507185553 10 82 6.4 12.9 0.00 0.00 0.00 74 1017.2
20260507184053 10 83 6.4 17.7 0.00 0.00 0.00 72 1017.1
20260507182553 11 69 9.7 17.7 0.00 0.00 0.00 68 1017.1
20260507181052 11 61 9.7 17.7 0.00 0.00 0.00 68 1017.0
20260507175552 11 63 9.7 20.9 0.00 0.00 0.00 64 1016.9
20260507174052 12 79 9.7 20.9 0.00 0.00 0.00 65 1016.8
20260507172551 12 70 12.9 20.9 0.00 0.00 0.00 66 1016.7
20260507171050 12 92 12.9 20.9 0.00 0.00 0.00 66 1016.6
20260507165551 13 93 12.9 20.9 0.00 0.00 0.00 63 1016.5
20260507164050 12 85 12.9 20.9 0.00 0.00 0.00 64 1016.4
20260507162551 13 79 9.7 24.1 0.00 0.00 0.00 60 1016.2
20260507161050 13 103 12.9 24.1 0.00 0.00 0.00 63 1016.1
20260507155550 15 112 9.7 17.7 0.00 0.00 0.00 60 1016.0
20260507154049 13 107 12.9 20.9 0.00 0.00 0.00 62 1016.0
20260507152549 13 89 12.9 24.1 0.00 0.00 0.00 61 1015.9
20260507151049 13 69 9.7 24.1 0.00 0.00 0.00 56 1015.8
20260507145548 15 69 6.4 17.7 0.00 0.00 0.00 52 1015.8
20260507144048 15 70 3.2 12.9 0.00 0.00 0.00 46 1015.7
20260507142548 15 11 9.7 17.7 0.00 0.00 0.00 51 1015.9
20260507141047 15 47 6.4 17.7 0.00 0.00 0.00 47 1015.9
20260507135547 15 56 9.7 17.7 0.00 0.00 0.00 52 1015.9
20260507134047 15 65 6.4 17.7 0.00 0.00 0.00 52 1016.0
20260507132547 15 18 9.7 24.1 0.00 0.00 0.00 54 1016.0
20260507131046 15 11 12.9 24.1 0.00 0.00 0.00 54 1015.9
20260507125546 15 33 9.7 20.9 0.00 0.00 0.00 53 1015.9
20260507124046 15 26 9.7 24.1 0.00 0.00 0.00 55 1015.9
20260507122546 15 8 12.9 24.1 0.00 0.00 0.00 55 1016.0
20260507121045 13 7 6.4 20.9 0.00 0.00 0.00 57 1016.0
20260507115545 13 12 9.7 17.7 0.00 0.00 0.00 59 1015.9
20260507114044 13 32 9.7 20.9 0.00 0.00 0.00 61 1016.0
20260507112544 13 10 9.7 20.9 0.00 0.00 0.00 62 1016.0
20260507111043 13 30 9.7 20.9 0.00 0.00 0.00 59 1016.0
20260507105544 12 344 9.7 20.9 0.00 0.00 0.00 63 1015.9
20260507104043 12 19 9.7 17.7 0.00 0.00 0.00 65 1015.8
20260507102543 12 36 9.7 20.9 0.00 0.00 0.00 65 1015.7
20260507101042 12 21 12.9 20.9 0.00 0.00 0.00 65 1015.6
20260507095542 11 22 9.7 20.9 0.00 0.00 0.00 65 1015.6
20260507094042 11 14 9.7 17.7 0.00 0.00 0.00 67 1015.5
20260507092543 11 14 9.7 17.7 0.00 0.00 0.00 69 1015.4
20260507091042 11 0 9.7 17.7 0.00 0.00 0.00 70 1015.3
20260507085541 11 356 9.7 17.7 0.00 0.00 0.00 73 1015.2
20260507084040 10 359 9.7 12.9 0.00 0.00 0.00 74 1015.2
20260507082540 10 8 6.4 17.7 0.00 0.00 0.00 74 1015.1
20260507081039 10 2 9.7 17.7 0.00 0.00 0.00 78 1015.0
20260507075540 10 10 6.4 17.7 0.00 0.00 0.00 78 1014.9
20260507074039 10 342 6.4 12.9 0.00 0.00 0.00 83 1014.8
20260507072539 8 350 6.4 9.7 0.00 0.00 0.00 82 1014.8
20260507071038 8 5 6.4 9.7 0.00 0.00 0.00 82 1014.8
20260507065538 7 24 6.4 9.7 0.00 0.00 0.00 83 1014.7
20260507064037 7 19 6.4 9.7 0.00 0.00 0.00 86 1014.6
20260507062536 6 2 6.4 9.7 0.00 0.00 0.00 88 1014.4
20260507061035 5 330 0.0 3.2 0.00 0.00 0.00 92 1014.3
20260507055535 5 42 0.0 3.2 0.00 0.00 0.00 96 1014.2
20260507054035 5 350 0.0 3.2 0.00 0.00 0.00 98 1014.1
20260507052534 3 315 0.0 3.2 0.00 0.00 0.00 99 1014.0
20260507051033 2 314 0.0 3.2 0.00 0.00 0.00 99 1014.0
20260507045533 2 306 0.0 3.2 0.00 0.00 0.00 99 1013.7
20260507044032 2 306 0.0 0.0 0.00 0.00 0.00 99 1013.4
20260507042533 2 306 0.0 3.2 0.00 0.00 0.00 99 1013.4
20260507041031 2 306 0.0 3.2 0.00 0.00 0.00 99 1013.4
20260507035531 2 320 0.0 3.2 0.00 0.00 0.00 99 1013.4
20260507034030 3 327 0.0 3.2 0.00 0.00 0.00 98 1013.2
20260507032531 3 322 0.0 3.2 0.00 0.00 0.00 97 1013.2
20260507031030 5 325 3.2 3.2 0.00 0.00 0.00 96 1013.0
20260507025529 5 334 3.2 6.4 0.00 0.00 0.00 93 1013.0
20260507024030 5 337 3.2 6.4 0.00 0.00 0.00 93 1012.9
20260507022530 5 343 3.2 9.7 0.00 0.00 0.00 90 1012.8
20260507021029 5 339 6.4 9.7 0.00 0.00 0.00 91 1012.9
20260507015529 5 329 6.4 9.7 0.00 0.00 0.00 90 1012.8